Millinocket, ME

5:57 AM EST on December 16, 2019 (GMT -0500)
Millinocket Municipal

Weather History for KMLT - August, 2019

Change the Weather History Date:

Sunday, August 11, 2019

  Actual Average Record
Temperature  
Mean Temperature 64 °F 67 °F  
Max Temperature 73 °F 78 °F 96 °F (1944)
Min Temperature 55 °F 56 °F 41 °F (1927)
Degree Days  
Heating Degree Days 1 1  
Month to date heating degree days 2 11  
Since 1 June heating degree days 100 151  
Since 1 July heating degree days 2 35  
Cooling Degree Days 0 3  
Month to date cooling degree days 37 33  
Year to date cooling degree days 259 205  
Since 1 June cooling degree days 259 199  
Growing Degree Days 14 (Base 50)    
Moisture  
Dew Point 54 °F    
Average Humidity 68    
Maximum Humidity 86    
Minimum Humidity 49    
Precipitation  
Precipitation T in 0.11 in 2.43 in (1998)
Month to date precipitation 1.46 1.35  
Year to date precipitation 25.13 24.34  
Sea Level Pressure  
Sea Level Pressure 29.81 in    
Wind  
Wind Speed 6 mph (WNW)    
Max Wind Speed 18 mph    
Max Gust Speed 32 mph    
Visibility 10 miles    
Events      
T = Trace of Precipitation, MM = Missing Value Source: NWS Daily Summary

Daily Weather History Graph

Daily Weather History Graph

Search for Another Location

Airport or City:

Astronomy

Aug. 11, 2019 Rise Set
Actual Time 5:29 AM EDT 7:49 PM EDT
Civil Twilight 4:56 AM EDT 8:22 PM EDT
Nautical Twilight 4:15 AM EDT 9:02 PM EDT
Astronomical Twilight 3:29 AM EDT 9:48 PM EDT
Moon 5:32 PM EDT (8/11) 1:41 AM EDT (8/11)
Length of Visible Light 15h 25m
Length of Day
14h 19m
Waxing Gibbous, 87% of the Moon is Illuminated
Aug 11
Waxing Gibbous
Aug 15
Full
Aug 23
Last Quarter
Aug 30
New
Sep 5
First Quarter

Hourly Weather History & Observations

Time (EDT) Temp. Dew Point Humidity Pressure Visibility Wind Dir Wind Speed Gust Speed Precip Events Conditions
12:53 AM 57.9 °F 53.1 °F 84% 29.76 in 10.0 mi WNW 8.1 mph - N/A   Partly Cloudy
1:53 AM 57.9 °F 53.1 °F 84% 29.78 in 10.0 mi WNW 8.1 mph - N/A   Clear
2:53 AM 57.0 °F 53.1 °F 87% 29.78 in 10.0 mi Calm Calm - N/A   Scattered Clouds
3:53 AM 57.0 °F 52.0 °F 83% 29.79 in 10.0 mi West 4.6 mph - N/A   Clear
4:53 AM 57.0 °F 52.0 °F 83% 29.81 in 10.0 mi West 3.5 mph - N/A   Clear
5:53 AM 57.0 °F 53.1 °F 87% 29.82 in 10.0 mi Variable 4.6 mph - N/A   Clear
6:53 AM 59.0 °F 53.1 °F 81% 29.82 in 10.0 mi West 3.5 mph - N/A   Clear
7:53 AM 62.1 °F 53.1 °F 72% 29.83 in 10.0 mi Variable 5.8 mph - N/A   Partly Cloudy
8:53 AM 61.0 °F 54.0 °F 78% 29.84 in 10.0 mi WNW 5.8 mph - N/A   Overcast
9:53 AM 62.1 °F 54.0 °F 75% 29.84 in 10.0 mi West 5.8 mph - 0.00 in   Overcast
10:53 AM 63.0 °F 54.0 °F 72% 29.84 in 10.0 mi Variable 5.8 mph - N/A   Overcast
11:53 AM 66.0 °F 53.1 °F 63% 29.83 in 10.0 mi WNW 13.8 mph 21.9 mph N/A   Overcast
12:53 PM 66.0 °F 53.1 °F 63% 29.82 in 10.0 mi West 8.1 mph - N/A   Overcast
1:53 PM 72.0 °F 55.0 °F 55% 29.81 in 10.0 mi WNW 12.7 mph 20.7 mph N/A   Mostly Cloudy
2:53 PM 72.0 °F 52.0 °F 49% 29.80 in 10.0 mi WNW 9.2 mph 17.3 mph N/A   Overcast
4:53 PM 69.1 °F 52.0 °F 54% 29.81 in 10.0 mi WNW 11.5 mph 26.5 mph N/A   Overcast
5:53 PM 70.0 °F 55.0 °F 59% 29.80 in 10.0 mi Calm Calm - N/A   Overcast
6:53 PM 71.1 °F 55.9 °F 59% 29.81 in 10.0 mi Calm Calm - N/A   Overcast
7:53 PM 68.0 °F 54.0 °F 61% 29.81 in 10.0 mi Variable 3.5 mph - N/A   Partly Cloudy
8:53 PM 62.1 °F 55.0 °F 78% 29.82 in 10.0 mi South 3.5 mph - N/A   Clear
9:53 PM 62.1 °F 54.0 °F 75% 29.82 in 10.0 mi Calm Calm - N/A   Clear
10:53 PM 61.0 °F 55.0 °F 81% 29.82 in 10.0 mi Calm Calm - N/A   Partly Cloudy
11:53 PM 68.0 °F 55.0 °F 63% 29.83 in 10.0 mi West 6.9 mph - N/A   Overcast